Orbital Elements at Epoch 2459000.5 (2020-May-31.0) TDB
Reference: JPL 24 (heliocentric ecliptic J2000)
Element | Value | Uncertainty (1-sigma) | Units |
e | .09505621001138255 | 3.0702e-08 | |
a | 2.394543555143635 | 9.8579e-09 | au |
q | 2.166927320084499 | 7.621e-08 | au |
i | 2.644877695923515 | 3.5317e-06 | deg |
node | 62.94195957850314 | 8.2535e-05 | deg |
peri | 18.85083194377971 | 8.6045e-05 | deg |
M | 226.6546288534425 | 2.5181e-05 | deg |
tp | 2459501.811863269081 (2021-Oct-14.31186327) | 9.621e-05 | TDB |
period | 1353.419839212231 3.71 | 8.3576e-06 2.288e-08 | d yr |
n | .2659928497941489 | 1.6426e-09 | deg/d |
Q | 2.622159790202771 | 1.0795e-08 | au |
|
| | Orbit Determination Parameters
Additional Information
|